Location: Tucson
(32.2217°N, 110.9265°W)
Time: 00:45:16
(UTC-07:00)

Vanguard 1 Rocket - All Passes

Search period start: 21 October 2021 00:00
Search period end: 31 October 2021 00:00
Orbit: 650 x 4226 km, 34.3° (Epoch: 20 October)

Date Brightness Start Highest point End Pass type
(mag) Time Alt. Az. Time Alt. Az. Time Alt. Az.
21 Oct - 10:07:33 10° SSW 10:27:03 33° SSE 10:39:47 10° E daylight
21 Oct - 12:36:59 10° SW 12:56:41 66° SSE 13:06:37 10° ENE daylight
21 Oct - 15:10:44 10° W 15:24:18 81° N 15:31:03 10° E daylight
21 Oct - 17:42:23 10° WNW 17:50:20 83° SSW 17:55:09 10° ESE daylight
21 Oct - 20:11:21 10° WSW 20:14:30 17° SW 20:17:23 10° S visible
22 Oct - 08:56:03 10° S 09:12:56 23° SE 09:25:45 10° E daylight
22 Oct - 11:21:56 10° SW 11:43:27 53° SSE 11:55:22 10° E daylight
22 Oct - 13:54:56 10° WSW 14:12:07 89° SSE 14:20:27 10° ENE daylight
22 Oct - 16:28:29 10° W 16:39:02 80° N 16:44:40 10° E daylight
22 Oct - 18:58:19 10° W 19:03:58 37° SSW 19:08:07 10° SE visible
23 Oct - 07:48:29 10° SSE 07:58:31 14° SE 08:07:29 10° ESE daylight
23 Oct - 10:07:56 10° SSW 10:29:40 41° SSE 10:43:24 10° E daylight
23 Oct - 12:38:54 10° WSW 12:59:25 76° SSE 13:09:39 10° ENE daylight
23 Oct - 15:13:26 10° W 15:27:16 79° N 15:34:08 10° E daylight
23 Oct - 17:45:10 10° WNW 17:53:14 68° SSW 17:58:05 10° ESE daylight
23 Oct - 20:16:24 10° SW 20:17:05 10° SW 20:17:46 10° SSW visible
24 Oct - 08:55:29 10° SSW 09:15:28 30° SE 09:30:08 10° E daylight
24 Oct - 11:23:20 10° SW 11:46:05 63° SSE 11:58:29 10° ENE daylight
24 Oct - 13:57:25 10° W 14:14:59 85° N 14:23:29 10° E daylight
24 Oct - 16:31:12 10° WNW 16:42:01 88° NNE 16:47:45 10° ESE daylight
24 Oct - 19:01:27 10° W 19:06:37 26° SW 19:10:29 10° SSE visible
25 Oct - 07:45:26 10° S 08:01:06 20° SE 08:14:25 10° E daylight
25 Oct - 10:08:47 10° SW 10:32:11 50° SSE 10:46:41 10° E daylight
25 Oct - 12:41:03 10° WSW 13:02:09 84° SSE 13:12:39 10° ENE daylight
25 Oct - 15:16:07 10° W 15:30:15 80° N 15:37:13 10° E daylight
25 Oct - 17:47:57 10° WNW 17:56:01 53° SSW 18:00:54 10° SE daylight
26 Oct - 06:45:25 10° SE 06:46:39 10° SE 06:47:53 10° SE daylight
26 Oct - 08:55:38 10° SSW 09:17:52 38° SE 09:33:55 10° E daylight
26 Oct - 11:25:02 10° SW 11:48:41 72° SSE 12:01:29 10° ENE daylight
26 Oct - 14:00:00 10° W 14:17:53 82° N 14:26:31 10° E daylight
26 Oct - 16:33:52 10° WNW 16:44:56 81° SSW 16:50:44 10° ESE daylight
26 Oct - 19:04:55 10° W 19:09:07 18° SW 19:12:25 10° S visible
27 Oct - 07:44:23 10° S 08:03:27 26° SE 08:19:23 10° E daylight
27 Oct - 10:10:00 10° SW 10:34:37 59° SSE 10:49:47 10° ENE daylight
27 Oct - 12:43:22 10° WSW 13:04:54 89° NNW 13:15:38 10° ENE daylight
27 Oct - 15:18:46 10° W 15:33:12 84° N 15:40:17 10° E daylight
27 Oct - 17:50:48 10° W 17:58:40 40° SW 18:03:31 10° SE visible
28 Oct - 06:36:33 10° SSE 06:49:07 16° SE 07:00:59 10° ESE daylight
28 Oct - 08:56:19 10° SSW 09:20:10 46° SE 09:37:17 10° E daylight
28 Oct - 11:26:59 10° WSW 11:51:16 80° SSE 12:04:26 10° ENE daylight
28 Oct - 14:02:37 10° W 14:20:47 81° N 14:29:35 10° E daylight
28 Oct - 16:36:31 10° WNW 16:47:45 68° SSW 16:53:39 10° ESE daylight
28 Oct - 19:09:18 10° WSW 19:11:30 12° SW 19:13:26 10° SSW visible
29 Oct - 07:44:18 10° SSW 08:05:38 34° SE 08:23:26 10° E daylight
29 Oct - 10:11:32 10° SW 10:37:02 67° SSE 10:52:46 10° ENE daylight
29 Oct - 12:45:49 10° W 13:07:41 85° N 13:18:38 10° E daylight
29 Oct - 15:21:23 10° WNW 15:36:07 89° SSW 15:43:19 10° ESE daylight
29 Oct - 17:53:49 10° W 18:01:10 30° SW 18:05:54 10° SSE visible
30 Oct - 06:34:37 10° S 06:51:18 22° SE 07:07:03 10° E daylight
30 Oct - 08:57:25 10° SW 09:22:23 54° SSE 09:40:24 10° ENE daylight
30 Oct - 11:29:10 10° WSW 11:53:54 87° SSE 12:07:22 10° ENE daylight
30 Oct - 14:05:13 10° W 14:23:43 83° N 14:32:39 10° E daylight
30 Oct - 16:39:10 10° WNW 16:50:25 55° SSW 16:56:26 10° SE daylight
